User: anonymous
Location: Unspecified
(0.0000°N, 0.0000°E)
Time: 07:04:43
(UTC+00:00)
Language:

HO-68 - Orbit

View from above orbital plane
View from above orbital plane
View from above satellite
View from above satellite

Ground track
Ground track

The orbit data is extracted from the following two-line orbital elements,

1 36122U 09072B   14108.74906850 -.00000043  00000-0  00000+0 0  5088
2 36122 100.2567 162.4221 0007653 015.8345 344.2993 13.16314234208611
Epoch (UTC): 18 April 2014 17:58:39
Eccentricity: 0.0007653
inclination: 100.2567°
perigee height: 1193 km
apogee height: 1204 km
right ascension of ascending node: 162.4221°
argument of perigee: 15.8345°
revolutions per day: 13.16314234
mean anomaly at epoch: 344.2993°
orbit number at epoch: 20861

The dashed part of the orbit path shows where the satellite is in the earth's shadow,  

DLR